Vorticity
nan nan nan nan nan nan nan nan nan nan nan nan nan nan nan nan nan nan nan nan nan nan nan nan nan nan nan nan nan nan nan nan nan nan nan nan nan nan nan nan nan nan nan
nan 8 11 6 8 10 8 7 8 8 5 11 12 7 5 10 10 9 8 8 8 8 7 6 9 11 8 7 8 9 9 7 7 9 7 8 9 11 11 10 8 11 nan
nan 9 8 6 7 8 10 10 8 9 7 7 7 9 10 9 9 9 9 8 8 8 9 10 7 6 8 8 6 8 9 12 10 9 6 8 9 11 10 9 8 9 nan
nan 9 8 9 10 9 10 12 9 9 11 8 7 8 9 10 9 8 8 9 10 8 7 10 11 8 6 7 8 7 8 10 9 9 8 9 8 9 10 8 11 10 nan
nan 11 9 12 9 9 12 11 9 9 10 10 11 9 9 10 9 8 9 9 9 9 9 9 10 10 11 7 5 8 8 8 8 9 11 8 8 11 12 9 10 9 nan
nan 10 9 11 11 9 9 9 9 10 11 10 9 10 8 10 12 14 12 9 9 9 9 8 8 9 12 11 10 9 5 3 5 6 9 10 9 9 10 10 8 7 nan
nan 11 11 9 9 11 11 10 9 10 10 10 10 9 9 8 12 15 13 13 13 10 9 9 9 11 10 11 12 10 8 10 8 6 6 6 7 8 8 10 10 11 nan
nan 9 11 12 13 12 12 11 11 11 10 11 11 10 10 12 18 9 7 9 10 13 13 10 10 10 10 11 13 14 15 13 12 9 8 7 8 8 9 10 8 9 nan
nan 10 10 10 12 11 10 12 12 12 13 12 11 14 15 18 16 12 10 10 11 13 13 13 15 13 14 17 14 13 15 15 14 8 8 10 13 13 10 9 10 9 nan
nan 10 10 10 10 12 11 10 9 10 12 12 14 12 14 18 12 14 13 12 10 9 13 12 13 14 12 15 14 14 13 11 11 16 14 13 12 12 12 11 12 9 nan
nan 11 9 10 9 10 11 11 11 11 11 11 11 9 11 9 8 8 11 12 11 10 9 11 6 8 11 14 14 10 9 11 13 12 10 13 14 11 14 12 15 17 nan
nan 11 10 10 12 9 10 11 10 11 10 10 9 10 9 8 9 9 9 9 12 13 11 13 12 10 7 9 12 11 14 15 14 15 15 15 15 16 14 13 14 12 nan
nan 8 10 9 10 10 9 9 10 10 9 10 11 11 9 7 7 9 11 11 12 12 13 11 11 10 10 4 4 11 16 16 14 14 13 14 13 13 15 17 11 7 nan
nan 8 8 10 8 11 11 9 11 11 10 11 12 10 11 10 9 10 11 10 11 11 9 8 6 7 9 10 7 8 9 11 12 11 11 11 12 11 10 10 9 12 nan
nan 9 8 9 6 3 7 14 15 13 14 13 12 13 15 13 10 12 13 14 11 10 11 12 8 8 7 8 7 9 10 8 10 12 12 11 12 12 10 11 11 11 nan
nan 9 9 8 9 9 6 2 7 17 12 11 11 13 14 15 13 8 9 12 11 11 13 9 10 10 12 13 9 9 8 10 10 10 10 12 10 7 9 10 14 13 nan
nan 11 10 8 12 11 7 7 4 2 8 10 9 8 17 14 8 8 9 8 7 7 11 13 11 12 11 10 11 11 10 10 9 10 8 8 9 13 11 8 12 11 nan
nan 10 6 11 12 11 10 10 9 10 8 6 7 10 12 11 9 5 5 9 12 9 10 10 12 13 12 12 12 12 10 9 10 9 9 10 9 8 9 10 9 10 nan
nan 11 10 11 12 9 11 11 10 10 10 11 9 11 10 9 8 7 7 7 11 14 11 9 10 10 11 9 12 13 12 10 11 10 10 9 10 10 9 9 10 11 nan
nan 10 11 7 13 10 11 10 12 13 10 9 9 13 10 7 9 10 9 9 9 10 12 13 11 10 11 10 9 8 11 11 10 10 11 12 10 9 10 11 10 10 nan
nan 11 11 12 12 9 10 12 12 9 8 10 14 16 11 5 9 11 11 11 9 11 11 9 13 13 9 11 10 10 9 10 10 10 10 10 11 9 11 11 11 10 nan
nan 11 11 10 10 12 12 11 11 10 11 13 14 18 10 1 9 12 11 11 13 8 11 13 14 11 11 11 9 12 13 11 12 12 10 11 11 11 10 10 11 10 nan
nan 12 11 9 12 11 11 11 10 11 13 14 9 11 8 10 11 14 10 9 13 14 14 12 8 9 14 12 11 10 10 14 14 11 11 11 11 12 12 12 10 10 nan
nan 11 8 9 8 12 11 10 9 13 16 11 9 9 10 11 12 13 13 9 10 13 12 11 10 12 10 10 10 12 14 13 14 14 10 11 12 10 9 12 12 10 nan
nan 11 11 13 10 7 11 14 10 14 10 9 13 11 11 11 12 11 10 11 12 11 10 10 12 12 8 7 7 13 19 13 8 10 11 8 9 13 14 10 6 10 nan
nan nan nan nan nan nan nan nan nan nan nan nan nan nan nan nan nan nan nan nan nan nan nan nan nan nan nan nan nan nan nan nan nan nan nan nan nan nan nan nan nan nan nan
CAPE
2527 2221 2144 2181 2217 2237 2378 2656 2803 2753 2001 577 326 0 284 567 2032 2635 2331 2292 2394 2464 2926 2779 2793 2862 2667 2219 2302 1745 1975 871 785 1392 1835 2048 2581 2559 1220 2246 773 952 330
2654 2653 2448 2225 2039 2186 2627 2648 2889 2983 2914 2744 1475 520 565 999 2082 2473 2205 1541 2119 2827 2491 2564 2990 1985 2569 3095 2479 2423 1540 2295 2150 1995 1895 1662 1699 2239 2268 2867 2200 1580 1089
2915 2373 2604 2251 1632 1999 2411 2749 2854 3031 2908 2795 2467 2864 2386 2227 2342 2204 2351 1912 1964 2120 2341 2335 2485 2480 2755 2204 2887 2302 2197 2015 2322 2053 1768 1667 1568 1835 2491 2670 2161 2314 2017
2511 2199 2156 2109 1926 1733 2046 3123 2838 3246 3157 2573 2584 2729 2643 2485 2185 2393 2172 2493 2516 2598 2441 2427 2328 2250 2522 2631 2233 1787 1388 1816 1822 1711 1328 1070 1456 1280 2145 1756 1626 1923 651
3122 2497 2258 2407 2881 3026 3665 3699 3428 3493 3074 3209 2592 2351 2678 2482 1991 2354 2430 1995 2417 2316 2354 2370 1920 2094 1865 1975 1947 2267 1964 1652 1341 1553 1238 1096 833 930 1876 1937 1096 1352 1381
3473 3100 2726 4114 3660 3256 3518 3499 3535 3303 3256 2945 3076 2856 2665 2361 1632 975 1739 2152 1785 1858 1940 1719 1773 1415 1306 841 690 1371 1776 1401 1200 1283 1534 1157 1457 1779 1955 1324 946 726 1029
4535 4205 4141 4340 3969 3928 3770 3763 3666 3627 3367 3122 3071 2991 2805 2480 2109 430 76 1387 1748 1764 1473 1804 1828 1278 1029 1552 985 326 266 394 415 1148 1139 1200 1398 1610 1560 1103 900 1141 1065
4448 4393 4424 4382 3874 3732 3784 3233 2982 3390 3188 2965 2548 2705 2756 2741 1865 127 0 1095 1698 1402 1548 2024 1950 1333 1324 1059 781 735 996 992 626 300 400 838 1599 1969 1432 1883 1985 1504 1539
3955 3981 3974 3759 3356 3395 3186 2937 2731 3055 3024 2832 2416 2076 2002 2044 5 0 48 1496 1553 1795 1557 1280 1423 1269 462 56 182 518 744 923 1159 776 69 38 226 433 669 1388 954 1253 1333
3660 3290 2914 2889 2702 2693 2627 2696 2759 2386 2683 2366 1973 1687 647 408 1 0 0 875 789 1148 1080 1117 1 1 1 1 14 291 696 705 674 778 350 17 2 36 29 293 747 699 1114
3060 2837 2156 2138 2160 2196 2229 2250 2246 1794 1529 1351 1179 846 588 87 0 0 0 0 73 52 161 202 1 1 1 0 2 3 4 2 1 30 380 733 716 398 379 139 526 614 581
2973 2484 1973 1959 1560 1282 1944 2290 2344 2481 2315 1945 1466 1173 763 47 0 0 1 1 0 0 3 20 0 1 0 0 0 0 0 1 2 5 95 259 630 883 277 2 2 1 1
2779 2353 2083 2260 1788 1781 1797 2048 1877 2145 1193 1393 1350 724 313 91 0 0 0 0 0 2 1 0 0 0 0 0 0 0 0 1 2 2 1 1 1 2 5 3 3 4 2
2489 2327 2343 1996 1651 1471 1238 1228 1300 1163 1086 552 445 355 311 354 10 0 0 0 0 0 0 0 0 0 0 0 0 0 3 2 4 4 1 1 0 0 1 1 5 7 3
2514 2213 2107 1491 1391 1174 0 301 263 0 4 373 54 382 294 356 18 0 0 20 22 0 11 3 4 17 62 49 3 1 1 3 0 4 1 1 1 1 1 1 1 1 0
2044 1921 1659 1395 1309 957 151 0 0 0 1 1 1 4 0 0 1 0 2 2 0 0 11 53 34 21 126 53 0 2 1 1 1 2 4 0 0 0 1 1 1 14 5
2387 1979 1046 698 1002 825 482 172 0 0 1 0 0 2 0 0 0 1 1 0 0 0 0 34 29 51 17 53 3 2 1 1 2 1 3 5 5 0 0 1 4 0 0
2873 950 1172 786 742 622 368 421 246 7 0 0 0 0 1 1 1 1 1 1 0 0 22 73 55 149 78 51 15 3 0 1 5 0 7 3 2 0 0 0 0 0 0
1363 1334 1189 612 438 268 363 224 155 153 265 7 0 0 0 1 1 1 1 0 103 94 101 149 112 27 37 13 8 10 0 0 8 9 5 5 1 0 0 0 0 0 0
96 851 619 633 231 263 196 84 34 457 251 256 18 0 0 0 0 0 0 0 70 47 256 263 181 373 159 139 40 7 0 1 5 7 13 24 6 1 0 0 0 0 0
925 687 26 114 201 103 83 29 36 314 274 263 223 24 0 0 3 10 21 16 111 241 111 179 610 433 200 77 11 19 11 8 8 11 11 5 30 7 21 17 4 0 0
889 509 74 27 117 82 63 21 23 18 64 226 116 0 0 0 0 125 49 190 210 334 202 688 207 21 12 28 21 18 39 40 39 13 7 8 23 15 28 43 13 2 0
389 124 11 47 128 18 28 24 32 26 25 90 48 0 0 0 0 110 70 350 155 34 184 76 25 15 34 14 0 0 0 17 59 38 41 40 15 9 20 19 21 17 15
0 47 17 6 105 190 32 10 38 8 37 36 27 0 0 0 0 41 55 68 44 30 14 18 9 9 13 27 25 2 0 0 0 0 0 1 5 0 0 6 0 0 0
0 2 2 21 2 80 158 23 6 73 46 55 41 27 12 1 0 2 0 1 8 4 7 8 9 0 0 15 45 31 0 0 0 0 0 0 0 24 16 1 0 3 20
0 5 28 42 63 237 32 31 38 75 34 28 25 75 71 38 47 48 45 26 16 8 8 16 7 7 89 54 44 15 0 0 0 0 0 0 0 0 0 9 18 2 2